Regional Weather Roundup
Issued by NWS Charleston, SC

Current Version | Previous Version | Graphics & Text | Print | Product List | Glossary On
Versions: 1 2 3 4 5 6 7 8 9 10 11 12 13 14 15 16 17 18 19 20 21 22 23 24 25 26 27 28 29 30 31 32 33 34 35 36 37 38 39 40 41 42 43 44 45 46 47 48 49 50
467 ASUS42 KCHS 051028 RWRCHS REGIONAL WEATHER ROUNDUP NATIONAL WEATHER SERVICE CHARLESTON SC 600 AM EDT THU MAY 05 2016 NOTE: "FAIR" INDICATES FEW OR NO CLOUDS BELOW 12,000 FEET WITH NO SIGNIFICANT WEATHER AND/OR OBSTRUCTIONS TO VISIBILITY. NOT ALL STATIONS ARE QUALITY CONTROLLED. USE DATA WITH CAUTION... ESPECIALLY DEWPOINT OBSERVATIONS. SCZ027-030-031-034>040-042>050-051100- ...SOUTHEAST SOUTH CAROLINA... CITY SKY/WX TMP DP RH WIND PRES REMARKS N CHARLESTON PTCLDY 57 47 69 W8 29.58F WATERFRONT PRK N/A 61 49 65 VRB3 29.58S MOUNT PLEASANT FAIR 57 48 72 W6 29.59R JOHNS ISLAND FAIR 57 50 77 W7 29.60R PINOPOLIS N/A 61 52 72 W12 29.48F MONCKS CORNER FAIR 50 43 76 W3 29.58R SUMMERVILLE FAIR 52 50 93 W5 29.60R BEAUFORT MCAS PTCLDY 57 49 74 W7 29.62R BEAUFORT ARPT FAIR 59 48 67 W10 29.62S HILTON HEAD IS NOT AVBL WALTERBORO SUNNY 55 50 82 W7 29.62R ALLENDALE FAIR 55 50 82 CALM 29.63R ...SOUTHERN MIDLANDS AND PEE DEE... CITY SKY/WX TMP DP RH WIND PRES REMARKS GEORGETOWN FAIR 52 48 87 W5 29.57S KINGSTREE FAIR 50 46 87 CALM 29.55S ORANGEBURG CLEAR 56 46 69 W9 29.60R BARNWELL FAIR 55 52 88 SW8 29.63R AIKEN FAIR 50 45 81 W8 29.66R MANNING FAIR 54 46 76 W3 29.57R COLUMBIA CLEAR 56 46 69 W12 29.59R SUMTER CLOUDY 56 47 72 W8 29.55R FLORENCE PTCLDY 55 49 80 W5 29.54F MYRTLE BEACH CLEAR 57 45 62 W3 29.56F N MYRTLE BEACH PTCLDY 57 49 74 W7 29.53S $$ GAZ063-065-086>088-099>101-113>116-118-119-134>141-150-051100- ...SOUTHEAST GEORGIA... CITY SKY/WX TMP DP RH WIND PRES REMARKS SAVANNAH ARPT PTCLDY 55 49 80 W9 29.65R HUNTER AAF CLEAR 55 50 85 W8 29.63 FORT STEWART CLEAR 57 48 72 W7 29.64R STATESBORO CLEAR 57 54 88 W6 29.66S SYLVANIA SUNNY 55 53 91 NW7 29.66R CLAXTON FAIR 56 52 88 W5 29.68R ...CSRA...CENTRAL AND FAR SOUTHEAST GEORGIA... CITY SKY/WX TMP DP RH WIND PRES REMARKS THOMSON CLEAR 53 50 89 W8 29.71R AUGUSTA-BUSH CLEAR 54 47 77 W9 29.64R AUGUSTA-DANIEL CLEAR 56 45 66 W12 29.64S SWAINSBORO FAIR 54 50 87 W7 29.69R VIDALIA CLEAR 55 50 82 W6 29.69R EASTMAN FAIR 55 50 85 NW3 29.75R HAZLEHURST FAIR 56 51 81 W5 29.70R ALMA CLEAR 58 50 75 NW10 29.70R WAYCROSS CLEAR 56 51 84 NW7 29.72R JESUP FAIR 59 52 77 W5 29.69R BAXLEY FAIR 59 52 77 NW7 29.70R BRUNSWICK PTCLDY 63 54 72 W7 29.69S SAINT SIMONS PTCLDY 60 50 69 W8 29.68R $$ SCZ027-028-034-036>038-045-046-048>050-GAZ119-141-051100- ...LAKE AND SUPPLEMENTAL COASTAL OBSERVATIONS... STATION/POSITION TIME TEMP WIND PRES WAVE SWELL AIR SEA DIR/SP/G HT/PER HT/PER/DIR (UTC) (F) (DEG/KT/KT) (MB) (FT/S) (FT/S/D) WINYAH BAY 0945 59 280/ 5 1000.0S LAKE MURRAY 0900 58 280/ 15/ 19 1001.7R ACE BASIN NERRS 0900 57 CALM 1003.0S FORT PULASKI 1000 61 74 280/ 14/ 17 1003.9R SAPELO ISLAND 1000 60 280/ 9 1005.0R $$ ANZ835-935-AMZ111-154-330-350-352-354-370-450-454-472-051100- ...C-MAN AND BUOY OBSERVATIONS... STATION/POSITION TIME TEMP WIND PRES WAVE SWELL AIR SEA DIR/SP/G HT/PER HT/PER/DIR (UTC) (F) (DEG/KT/KT) (MB) (FT/S) (FT/S/D) BUOY 41004 0950 69 74 290/ 17/ 21 1000.4F 3/ 4 2/ 8 BUOY 41008 NOT AVBL FOLLY BEACH CMAN 1000 59 280/ 6/ 10 1002.0S CAPERS NEARSHORE 0908 65 70 300/ 14/ 17 1000.9F FRIPP NEARSHORE 1008 63 69 300/ 14/ 19 1001.9F STATION/POSITION TIME TEMP WIND PRES WAVE SWELL AIR SEA DIR/SP/G HT/PER HT/PER/DIR (UTC) (F) (DEG/KT/KT) (MB) (FT/S) (FT/S/D) 5E ST. MARYS GA 0921 71 N/A 2/ 4 FRYING PAN BUOY 1000 69 71 300/ 8/ 10 998.9F BUOY 41025 0950 63 71 30/ 16/ 17 999.1R 3/ 7 2/ 10/ 9 CAPE LOOKOUT NC 1000 62 30/ 14/ 19 999.3R BUOY 41002 0950 67 73 290/ 16/ 23 998.6F 6/ 6 2/120/15 BUOY 41010 0920 73 78 310/ 16/ 19 1002.3R ST AUGUSTINE FL 1000 59 70 270/ 7/ 10 1006.9R $$

USA.gov is the U.S. government's official web portal to all federal, state and local government web resources and services.